Погода Агинское

Погода Агинское : погода сейчас, прогноз погоды и архив. Всё, что Вы хотите узнать о погоде Агинское!

Хотите узнать прогноз погоды Агинское? Тогда Вам сюда: Погода Агинское

Поиск расширенной информации на нашем сайте:

Другие новости

Новости СМИ2

Главная страница сайта

Новости сайта

03.07.2017

Напоминаем, что на нашем специализированном сайте Метеоцентр.Азия вы можете получить высокодетализированные автоматические прогнозы погоды по пунктам России, СНГ и мира в авиационном формате (включающие направление и скорость ветра, видимость, явления погоды, количество и форму облачности, нижнюю и верхнюю границу облачности).


Погода Агинское - сегодня

Время (UTC), дата Ветер
(°,м/с) 
Видим.   Явления Облачность Т
(°С)
Тd
(°С)
f(%) Тe
(°С)
Pmin
(гПа)
dP
(гПа)
Po
(мм)
O2
(г/м3)
Тmin Tmax R s Состояние
почвы
09 22.11.17 210 (ЮЗ) 1{13}  20000 м    1/1 1000 м 
[Sc diur, vesp]
-15.3 -22.2 55 -15  1021.1  0.1  700  300           
12 22.11.17 310 (СЗ) 2{13}  20000 м    ясно 
-19.1 -24.9 60 -22  1023.2  0.8  701  305    -11.8  0.0     
15 22.11.17 250 (З) 20000 м    ясно 
-23.2 -27.5 68 -26  1025.4  0.6  701  310           
18 22.11.17 270 (З) 20000 м    ясно 
-22.3 -25.5 75 -27  1025  -0.1  701  309           
21 22.11.17 230 (ЮЗ) 20000 м    ясно 
-19.7 -23.7 70 -25  1024.4  0.3  702  306           
00 23.11.17 240 (ЮЗ) 20000 м    3/0 верхняя 
[Ci fib]
-21.7 -25.1 74 -25  1026.3  1.1  702  309  -23.9      равномерный
сухой снег
100% 
03 23.11.17 310 (СЗ) 20000 м    5/0 верхняя 
[Ci fib]
-14.6 -23 49 -19  1024.1  0.4  703  301           
06 23.11.17 310 (СЗ) 20000 м    8/0 верхняя 
[Ci fib]
-12.8 -24 39 -17  1023.3  -0.2  702  298           
09 23.11.17 310 (СЗ) 20000 м    10/0 верхняя 
[Ci fib]
-16.5 -24.2 51 -17  1025.1  0.5  703  303           
12 23.11.17 290 (З) 20000 м    ясно 
-22.4 -26.7 68 -25  1027.5  0.2  703  310    -12.4       
15 23.11.17 220 (ЮЗ) 20000 м    ясно 
-26.3 -29.5 74 -30  1028.2  -0.7  702  315           
18 23.11.17 230 (ЮЗ) 20000 м    ясно 
-27.5 -30.8 74 -31  1028.1  -0.5  702  316           
21 23.11.17 230 (ЮЗ) 20000 м    ясно 
-28.4 -31.5 75 -32  1027.8  -0.6  702  317           
00 24.11.17 230 (ЮЗ) 20000 м    9/0 средняя, верхняя 
[Ac lent|Ci fib]
-29.3 -32.6 73 -30  1027.8  -0.3  701  318  -29.6      равномерный
сухой снег
100% 
03 24.11.17 290 (З) 20000 м    10/0 верхняя 
[Ci fib]
-19.9 -23.7 72 -20  1023.9  -0.4  701  306           
06 24.11.17 330 (СЗ) 20000 м    10/0 верхняя 
[Cc]
-13.5 -22.7 46 -18  1020.2  -1.3  700  298           
09 24.11.17 290 (З) 20000 м    3/0 верхняя 
[Ci fib]
-17.9 -23.3 63 -18  1022.1  0.3  700  304           
12 24.11.17 270 (З) 20000 м    ясно 
-24.5 -28 73 -28  1025.1  0.5  701  312    -13.4       
15 24.11.17 290 (З) 20000 м    ясно 
-27.4 -30.7 73 -28  1025.6  -0.5  700  315           
18 24.11.17 тихо ()   20000 м  слаб. снег  10/0 средняя, верхняя 
[Ac trans|Cs]
-25 -28.1 75 -25  1023.8  -0.8  700  312           
21 24.11.17 тихо ()   20000 м  слаб. снег  10/0 верхняя 
[Cs]
-23.7 -26.5 78 -24  1022.5  -0.8  699  310           
00 25.11.17 080 (В) 20000 м  {снег}  10/0 средняя, верхняя 
[Ac lent|Cs]
-25.8 -28.6 77 -26  1024.7  1.3  700  313  -27.7    0.0  равномерный
сухой снег
100% 
03 25.11.17 250 (З) 20000 м  {снег}  8/0 средняя 
[Ac trans]
-19.5 -23.4 71 -20  1024.5  1.9  702  306           
06 25.11.17 320 (СЗ) 20000 м  {снег}  ясно 
-15.1 -23.1 50 -20  1023.2  0.2  702  301           
09 25.11.17 330 (СЗ) 20000 м    ясно 
-18.7 -26.1 52 -19  1026.6  1.9  703  306           
Время (UTC), дата Ветер
(°,м/с) 
Видим.   Явления Облачность Т
(°С)
Тd
(°С)
f(%) Тe
(°С)
Pmin
(гПа)
dP
(гПа)
Po
(мм)
O2
(г/м3)
Тmin Tmax R s Состояние
почвы

Для получения пояснительной информации подведите курсор к названию столбца.

ПОГОДА Агинское - архив

Всё, что Вы хотите узнать о погоде Агинское - удобно и подробно!

Выберите нужную дату (начиная с 1 января 2015* года) и нажмите кнопку "Найти".
Будут отображены архивные сводки погоды по пункту Агинское, начиная с указанной даты.


Отображать данные в формате CSV (для использования в таблицах Excel)


Внимание! Наш архив погоды предназначен исключительно для личного некоммерческого использования в познавательных целях. Если Вам необходимы официальные справки о состоянии погоды (для производственных, юридических, коммерческих и т.п. целей), обращайтесь в органы Росгидромета.

*Примечание: данная дата относится к архиву по метеостанциям СССР (Россия, СНГ, Балтия).
Архив по метеостанциям Зарубежной Европы и Азии (кроме Китая) хранится 10 дней, по другим регионам земного шара (Китай, Африка, Америка, Австралия, Океания) - 1 день.

Агинское - район местоположения метеостанции


Название, широта, долгота, высота метеостанции:
Агинское 51.1°ш. 114.5°д. 681 м над ур. моря [Российская Федерация]

Дополнительная информация

В oтличие oт бoльшинства пoгoдных сайтoв мы публикуем пoдрoбную метеoинфoрмацию в детальнoм прoфессиoнальнoм фoрмате.

Характеристики температуры и влажнoсти вoздуха измеряются на высoте 2 м в тени вдали oт зданий и деревьев.
Скoрoсть ветра измеряется на высoте 10 м (на урoвне рoста челoвека скoрoсть ветра ниже в 1.5-2 раза). Если метеoстанция нахoдится в гoрoде или в лесу, тo скoрoсть ветра занижена на 2-4 м/с пo сравнению с oткрытым местoм. Скoрoсть ветра над акватoриями крупных рек и oзёр, а также на вершинах хoлмoв на 2-5 м/с выше, чем в oбычных услoвиях.
Атмoсфернoе давление в разных тoчках местнoсти мoжет значительнo oтличаться oт давления на метеoстанции, в зависимoсти oт услoвий рельефа (при пoдъёме на 10 м давление пoнижается примернo на 1 мм рт.ст.).